TimeMDT,TemperatureF,Dew PointF,Humidity,Sea Level PressureIn,VisibilityMPH,Wind Direction,Wind SpeedMPH,Gust SpeedMPH,PrecipitationIn,Events,Conditions,WindDirDegrees,DateUTC
12:53 AM,27.0,21.9,81,30.04,5.0,WSW,16.1,-,0.00,Snow,Light Snow,240,2013-03-19 06:53:00
12:58 AM,26.6,21.2,80,29.95,2.5,WSW,17.3,-,0.00,Snow,Light Snow,240,2013-03-19 06:58:00
1:08 AM,26.6,21.2,80,29.95,7.0,SW,17.3,24.2,0.00,Snow,Light Snow,230,2013-03-19 07:08:00
1:16 AM,26.6,21.2,80,29.95,9.0,SW,19.6,25.3,0.00,,Overcast,230,2013-03-19 07:16:00
1:53 AM,28.0,19.0,69,30.06,10.0,WSW,18.4,-,0.00,,Overcast,240,2013-03-19 07:53:00
2:53 AM,27.0,21.0,78,30.10,10.0,WSW,21.9,26.5,N/A,,Overcast,240,2013-03-19 08:53:00
3:53 AM,26.1,19.0,75,30.11,10.0,WSW,19.6,29.9,N/A,,Scattered Clouds,250,2013-03-19 09:53:00
4:53 AM,27.0,18.0,69,30.12,10.0,WSW,17.3,-,N/A,,Overcast,250,2013-03-19 10:53:00
5:53 AM,27.0,17.1,66,30.16,10.0,WSW,16.1,-,N/A,,Overcast,250,2013-03-19 11:53:00
6:53 AM,25.0,16.0,69,30.20,10.0,WSW,16.1,-,N/A,,Overcast,250,2013-03-19 12:53:00
7:53 AM,24.1,14.0,65,30.23,10.0,West,11.5,-,N/A,,Overcast,270,2013-03-19 13:53:00
8:53 AM,27.0,12.9,56,30.26,10.0,West,15.0,-,N/A,,Overcast,270,2013-03-19 14:53:00
9:53 AM,30.9,12.9,47,30.26,10.0,West,21.9,28.8,N/A,,Mostly Cloudy,260,2013-03-19 15:53:00
10:53 AM,33.1,10.9,40,30.28,10.0,WSW,23.0,-,N/A,,Mostly Cloudy,250,2013-03-19 16:53:00
11:53 AM,34.0,8.1,34,30.29,10.0,WNW,19.6,27.6,N/A,,Mostly Cloudy,290,2013-03-19 17:53:00
12:53 PM,36.0,12.0,37,30.27,10.0,West,23.0,29.9,N/A,,Clear,270,2013-03-19 18:53:00
1:53 PM,37.0,9.0,31,30.26,10.0,West,21.9,29.9,N/A,,Clear,260,2013-03-19 19:53:00
2:53 PM,39.0,8.1,28,30.25,10.0,West,19.6,24.2,N/A,,Clear,270,2013-03-19 20:53:00
3:53 PM,41.0,6.1,24,30.24,10.0,West,13.8,21.9,N/A,,Clear,280,2013-03-19 21:53:00
4:53 PM,42.1,6.1,23,30.23,10.0,NW,11.5,20.7,N/A,,Clear,310,2013-03-19 22:53:00
5:53 PM,42.1,7.0,24,30.22,10.0,NW,10.4,-,N/A,,Clear,320,2013-03-19 23:53:00
6:53 PM,37.0,10.0,33,30.24,10.0,North,5.8,-,N/A,,Clear,360,2013-03-20 00:53:00
7:53 PM,28.9,12.0,49,30.26,10.0,South,4.6,-,N/A,,Clear,170,2013-03-20 01:53:00
8:53 PM,24.1,10.9,57,30.26,10.0,Calm,Calm,-,N/A,,Clear,0,2013-03-20 02:53:00
9:53 PM,21.0,9.0,60,30.27,10.0,SW,3.5,-,N/A,,Clear,230,2013-03-20 03:53:00
10:53 PM,25.0,10.0,53,30.23,10.0,East,10.4,-,N/A,,Clear,100,2013-03-20 04:53:00
11:53 PM,25.0,10.9,55,30.20,10.0,ESE,11.5,-,N/A,,Partly Cloudy,120,2013-03-20 05:53:00